Temperature
18 17 17 17 17 17 17 17 16 16 16 17 17 17 16 16 16 16 16 16 16 16 16 16 16 16 16 16 16 15 15 15 15 15 15 15 15 15
18 17 17 17 17 17 17 16 16 16 16 16 16 16 16 16 16 16 16 16 16 16 16 16 16 16 15 15 15 15 15 15 15 15 15 15 14 14
17 17 17 17 17 17 17 16 16 16 16 16 16 16 16 16 16 16 16 16 16 16 16 15 15 15 15 15 15 15 15 15 15 15 14 14 14 14
17 17 17 17 17 17 16 16 16 16 16 16 16 16 16 16 16 16 16 15 15 15 15 15 15 15 15 15 15 15 15 15 14 14 14 14 14 14
17 17 17 16 16 16 16 16 16 16 15 15 15 15 15 15 15 15 15 15 15 15 15 15 15 15 15 15 15 14 14 14 14 14 14 14 14 14
17 16 16 16 16 16 16 16 15 15 15 15 15 15 15 15 15 15 15 15 15 15 14 14 14 14 14 14 14 14 14 14 14 14 14 14 14 14
16 16 16 16 16 16 16 15 15 15 15 15 15 15 14 14 14 14 14 14 14 14 14 14 14 14 14 14 14 14 14 14 14 14 14 13 13 13
16 16 16 16 16 15 15 15 15 15 15 14 14 14 14 14 14 14 14 14 13 14 13 14 14 14 14 13 13 13 13 13 13 13 13 13 13 13
16 16 16 15 15 15 15 15 15 14 14 14 14 14 14 14 14 13 13 13 13 13 13 13 13 13 13 13 13 13 13 13 13 13 13 13 13 13
15 15 15 15 15 15 15 14 14 14 14 14 14 14 14 13 13 13 13 13 13 13 13 13 13 13 13 13 13 13 13 13 13 13 12 12 12 12
15 15 15 15 15 14 14 14 14 14 14 13 13 13 13 13 13 12 12 12 12 12 12 12 12 12 12 12 12 12 12 12 12 12 12 12 12 12
15 14 14 14 14 14 14 14 14 14 13 13 13 13 13 13 12 12 12 12 12 12 12 12 12 12 12 12 12 12 12 12 12 12 12 12 12 12
14 14 14 14 14 14 13 13 13 13 13 13 13 13 12 12 12 12 12 12 12 12 12 12 12 12 11 11 12 12 12 12 12 12 12 12 11 11
14 13 13 13 13 13 13 13 13 13 12 12 12 12 12 12 12 12 12 11 11 11 11 11 11 11 11 11 11 11 11 11 11 11 11 11 11 11
13 13 13 13 12 12 12 12 12 12 12 12 12 11 11 11 11 11 11 11 11 11 11 11 11 11 11 11 11 11 11 11 11 11 11 11 11 11
13 12 12 12 12 12 12 12 12 12 12 11 11 11 11 11 11 11 11 11 11 11 11 11 11 11 11 11 11 10 10 10 10 10 10 10 10 10
12 12 12 12 12 11 11 11 11 11 11 11 11 11 11 11 11 10 10 10 10 10 10 11 10 10 10 10 10 10 10 10 10 10 10 10 10 10
12 12 12 11 11 11 11 11 11 11 10 10 10 10 10 10 10 10 10 10 10 10 10 10 10 10 10 10 10 10 10 10 10 10 10 10 10 10
12 12 11 11 11 11 10 10 10 10 10 10 10 10 10 10 10 10 10 10 10 10 10 10 10 10 9 9 10 10 9 9 9 9 9 9 9 9
11 11 11 11 10 10 10 10 10 10 10 10 10 10 9 9 9 9 9 9 9 9 9 9 9 9 9 9 9 9 9 9 9 9 9 9 9 9
11 11 11 10 10 10 10 10 10 9 9 9 9 9 9 9 9 9 9 9 9 9 8 8 8 8 8 8 8 9 9 9 9 9 9 8 8 9
11 11 11 10 10 10 10 9 9 9 9 9 9 9 9 9 8 8 8 8 8 8 8 8 8 8 8 8 8 8 8 8 8 8 8 8 8 8
11 10 10 10 10 10 9 9 9 9 9 9 9 8 8 8 8 8 8 8 8 8 8 8 8 8 8 8 8 8 8 8 8 8 8 8 8 8
Wind_Speed
3 3 2 2 2 2 3 3 3 2 4 4 3 3 3 3 4 4 4 5 6 8 9 9 9 9 9 9 9 9 10 9 10 10 10 10 10 11
3 3 2 2 2 2 2 2 3 4 4 4 4 3 3 2 4 4 5 5 7 8 10 10 9 9 9 8 8 9 9 9 9 10 10 10 10 10
3 3 3 3 2 2 2 2 2 3 4 4 2 2 2 2 1 3 4 3 4 8 9 9 9 8 8 8 9 9 9 9 9 9 8 8 9 9
4 3 4 3 2 2 2 2 2 3 3 4 3 2 2 3 2 2 2 3 4 6 8 9 8 8 8 8 8 8 8 9 9 8 8 8 8 8
5 5 4 3 3 3 3 3 2 2 2 3 3 2 2 2 2 2 2 2 3 4 5 6 7 8 9 9 8 8 8 9 9 9 8 7 7 7
5 5 4 5 5 5 4 3 3 2 2 2 2 2 2 2 1 1 2 2 2 2 2 3 4 5 7 8 8 8 8 9 9 9 8 7 7 7
3 4 4 4 5 4 3 3 3 2 2 2 2 2 2 1 2 2 2 2 2 2 1 2 2 2 3 6 7 8 9 9 9 9 8 7 7 7
4 3 3 2 3 3 3 4 4 4 3 3 3 3 4 3 2 2 2 1 2 2 1 3 2 3 3 4 6 8 8 8 7 7 7 7 7 7
4 4 3 2 1 1 0 0 1 2 4 4 4 4 4 4 3 2 2 2 3 3 1 3 2 3 3 4 6 7 6 7 7 7 7 7 6 6
4 4 4 3 2 3 2 1 1 1 2 2 3 4 4 3 4 4 4 2 2 2 2 2 2 2 3 3 5 6 6 5 6 7 7 7 7 7
2 3 4 4 4 5 3 2 0 2 2 0 1 2 3 3 3 2 1 1 1 2 1 2 1 2 2 3 4 4 4 4 5 6 6 7 7 5
1 1 3 4 4 5 4 3 2 2 1 2 2 2 1 1 2 3 3 2 1 2 2 2 1 0 1 3 2 3 3 4 5 6 6 7 6 4
2 1 2 3 4 4 4 3 4 3 1 1 1 1 2 1 1 2 3 3 3 3 3 2 1 1 1 2 3 2 2 2 3 4 5 6 6 5
3 2 2 2 3 3 2 2 2 2 1 1 0 1 1 2 2 2 2 3 3 4 4 3 2 3 2 1 3 2 2 3 2 2 3 4 5 6
2 3 2 3 3 1 2 2 2 2 1 1 1 2 2 2 1 1 2 1 2 3 2 3 2 3 3 3 3 2 2 2 2 1 2 2 3 3
1 2 3 4 3 2 1 1 1 1 1 1 1 2 1 1 1 0 1 1 2 3 3 3 2 2 2 3 3 2 2 2 2 2 1 2 3 3
3 3 3 2 2 1 1 1 1 1 0 0 0 1 1 1 1 1 0 1 0 2 3 3 2 1 2 3 2 3 3 2 2 2 1 2 3 4
5 3 2 2 2 1 1 0 0 1 1 1 0 0 0 0 1 1 1 0 1 2 2 2 2 2 2 2 3 3 2 2 2 2 2 2 3 4
4 3 3 3 2 2 2 1 1 1 1 1 1 1 0 0 0 1 1 1 1 2 2 1 0 1 1 3 4 3 2 2 2 2 2 2 3 4
3 3 3 3 3 2 2 2 2 1 0 1 1 1 0 0 0 1 1 1 1 1 2 2 1 1 3 3 3 3 3 3 2 2 2 2 3 4
3 3 3 3 3 2 2 2 2 2 1 1 1 1 1 0 0 1 1 1 1 1 2 3 4 4 2 0 1 3 3 4 4 3 2 1 2 2
3 3 3 3 3 3 2 2 1 1 1 1 1 1 1 1 1 1 1 1 1 2 2 3 2 2 1 1 2 3 3 4 4 4 3 4 3 3
4 3 3 3 3 2 2 2 2 2 1 1 1 1 1 1 1 1 1 1 1 1 1 2 2 1 2 2 2 2 3 3 2 3 3 5 5 5
Wind_Direction
213 205 210 230 212 206 192 184 189 251 274 261 258 268 249 240 245 227 222 224 218 217 220 220 221 225 225 227 233 236 238 239 241 244 248 249 252 252
216 202 214 228 224 211 199 204 198 204 243 252 241 249 250 256 249 226 228 232 226 225 225 224 226 228 228 229 229 232 234 237 241 245 246 247 250 253
224 204 223 220 214 226 212 206 212 201 239 272 264 258 244 256 270 226 236 233 240 236 230 228 229 232 233 231 229 230 236 240 244 246 247 248 251 253
219 214 234 230 224 224 209 218 225 213 211 251 272 269 248 242 250 248 237 237 234 241 232 229 229 231 234 233 234 233 236 241 243 244 243 246 251 250
213 213 227 214 225 227 217 223 231 232 207 220 259 262 264 268 277 284 264 258 251 251 240 233 231 233 234 233 235 235 236 238 239 240 240 241 245 246
219 215 216 212 216 218 223 223 225 230 230 227 251 268 273 281 249 275 294 287 277 274 262 239 231 234 234 234 236 238 241 243 242 240 240 241 241 240
228 227 226 221 219 216 220 221 213 220 231 232 244 258 263 270 251 241 255 274 281 258 272 274 244 248 244 240 240 238 236 239 241 238 237 238 239 242
221 232 234 227 223 218 215 214 199 199 217 226 234 232 243 238 235 231 220 253 277 264 226 268 241 251 255 249 251 245 240 237 235 231 231 235 237 239
214 213 226 230 197 143 115 61 241 223 209 203 217 228 225 222 203 220 234 232 242 241 201 256 262 263 270 266 261 251 244 239 235 230 229 232 235 238
218 210 201 208 205 161 143 120 287 284 255 224 209 220 218 211 200 205 214 228 269 267 184 219 278 279 292 283 275 264 251 245 243 238 234 232 235 239
214 208 195 200 201 171 154 162 310 325 336 204 195 211 216 211 186 150 153 134 291 284 228 180 243 289 291 278 289 285 270 253 253 248 240 240 239 236
228 232 216 201 197 182 175 174 193 251 305 13 4 355 352 224 198 180 182 184 213 258 248 181 213 83 314 288 283 287 281 272 262 253 249 245 235 219
203 237 255 210 194 192 184 189 207 199 153 115 29 355 354 341 293 201 193 188 192 231 230 174 186 174 192 285 298 278 258 267 266 264 257 249 233 211
187 211 238 197 177 176 167 162 162 131 126 105 45 314 295 284 289 280 232 218 219 225 226 182 183 193 190 247 280 294 288 271 252 255 265 257 246 235
177 177 156 141 127 129 126 124 123 112 118 143 231 260 258 256 298 329 325 317 308 291 260 210 192 196 188 210 243 264 289 289 251 253 259 234 230 222
120 97 95 97 99 107 89 75 95 132 154 192 241 274 312 1 1 341 336 345 332 314 312 295 239 184 209 233 230 250 243 251 265 252 245 253 256 240
127 87 80 80 84 68 63 42 46 63 77 323 281 337 346 360 345 353 29 66 20 310 313 320 311 265 227 217 239 250 252 256 240 236 237 264 263 250
128 134 147 153 162 173 173 207 302 256 251 247 247 201 281 298 324 344 12 43 269 283 292 301 328 359 355 308 232 235 258 266 264 243 222 241 265 261
137 162 175 185 190 188 190 201 235 253 239 224 243 241 238 255 316 320 327 331 301 295 303 309 343 136 283 296 296 248 226 258 276 270 244 234 253 261
161 175 188 192 190 192 201 212 226 234 222 241 258 271 242 218 308 303 295 288 296 314 325 323 299 250 234 244 261 285 265 234 235 253 265 273 280 288
186 189 195 192 191 197 206 208 205 214 221 222 242 252 245 204 245 270 289 314 330 328 307 297 288 299 278 306 303 299 293 278 250 229 233 249 288 298
189 194 199 190 184 185 189 189 188 197 202 197 232 254 244 208 218 233 241 287 279 266 275 292 318 342 352 266 276 282 294 311 310 292 253 226 208 222
200 195 194 190 184 180 178 170 170 189 195 196 204 230 234 240 248 235 245 252 277 288 306 319 332 324 290 264 273 281 286 300 313 328 319 319 293 269
Height
1543 1543 1543 1542 1542 1542 1542 1542 1542 1540 1538 1538 1538 1538 1538 1537 1536 1535 1534 1534 1533 1533 1533 1533 1533 1533 1533 1532 1532 1532 1531 1531 1531 1531 1531 1531 1531 1531
1541 1541 1540 1540 1539 1539 1539 1539 1539 1538 1536 1535 1535 1535 1535 1534 1533 1532 1532 1531 1530 1530 1530 1530 1530 1529 1529 1529 1528 1528 1528 1528 1527 1527 1527 1527 1527 1527
1538 1538 1537 1537 1536 1536 1536 1536 1535 1535 1533 1532 1532 1532 1531 1531 1530 1529 1529 1528 1528 1527 1527 1526 1526 1526 1526 1526 1525 1525 1524 1524 1524 1524 1523 1523 1523 1523
1535 1535 1534 1534 1533 1533 1533 1532 1532 1531 1530 1528 1528 1528 1528 1528 1527 1526 1525 1525 1525 1524 1524 1523 1523 1523 1523 1522 1522 1521 1521 1520 1520 1520 1520 1519 1519 1519
1531 1531 1531 1530 1530 1529 1529 1528 1528 1528 1527 1526 1524 1524 1524 1524 1523 1523 1522 1522 1521 1521 1520 1520 1520 1519 1519 1518 1518 1517 1517 1517 1517 1516 1516 1516 1516 1515
1527 1527 1527 1527 1526 1526 1525 1525 1524 1524 1523 1522 1521 1520 1520 1520 1520 1519 1518 1518 1518 1517 1517 1517 1516 1516 1515 1515 1514 1514 1513 1513 1513 1513 1512 1512 1512 1512
1523 1523 1523 1523 1522 1522 1521 1521 1521 1520 1519 1518 1517 1516 1516 1516 1515 1515 1514 1514 1514 1514 1513 1513 1513 1512 1512 1511 1511 1510 1510 1509 1509 1509 1509 1509 1509 1508
1519 1519 1519 1519 1518 1518 1518 1517 1517 1516 1515 1514 1513 1512 1512 1512 1512 1512 1511 1510 1509 1511 1510 1509 1509 1509 1508 1508 1507 1507 1507 1506 1506 1506 1505 1505 1505 1505
1514 1514 1514 1514 1514 1514 1513 1513 1512 1512 1511 1510 1509 1508 1508 1508 1508 1508 1508 1507 1506 1507 1507 1506 1505 1505 1505 1504 1504 1504 1503 1503 1502 1502 1502 1502 1502 1502
1510 1510 1510 1510 1510 1510 1509 1509 1508 1508 1507 1506 1506 1505 1505 1505 1505 1505 1504 1504 1504 1504 1504 1503 1502 1501 1501 1501 1501 1500 1500 1499 1499 1499 1499 1499 1498 1498
1506 1507 1507 1507 1506 1506 1506 1505 1505 1504 1504 1503 1503 1503 1502 1502 1501 1501 1501 1501 1500 1500 1501 1500 1499 1499 1498 1498 1498 1497 1497 1496 1496 1496 1495 1495 1495 1495
1502 1502 1503 1503 1503 1503 1503 1502 1501 1501 1501 1500 1500 1499 1499 1499 1498 1498 1498 1498 1497 1497 1497 1497 1497 1496 1496 1495 1495 1494 1493 1493 1493 1493 1493 1493 1492 1492
1497 1498 1499 1499 1499 1499 1499 1499 1499 1498 1498 1498 1497 1496 1496 1496 1496 1496 1496 1496 1496 1495 1495 1495 1494 1494 1494 1493 1492 1491 1490 1490 1489 1489 1489 1489 1489 1489
1494 1494 1495 1496 1496 1496 1496 1496 1496 1496 1496 1495 1495 1494 1494 1493 1493 1494 1494 1493 1493 1493 1493 1493 1492 1492 1491 1490 1489 1488 1488 1487 1486 1486 1486 1486 1485 1485
1491 1492 1493 1494 1493 1494 1493 1493 1494 1493 1493 1493 1492 1492 1492 1491 1491 1491 1491 1491 1491 1491 1490 1490 1490 1489 1489 1488 1487 1486 1484 1484 1483 1483 1482 1482 1481 1481
1489 1490 1491 1491 1491 1492 1491 1491 1491 1491 1491 1491 1491 1490 1490 1489 1488 1488 1488 1488 1488 1487 1487 1487 1486 1486 1485 1485 1484 1483 1482 1481 1480 1480 1479 1478 1478 1478
1488 1488 1488 1489 1489 1489 1489 1489 1489 1489 1489 1489 1489 1488 1487 1487 1486 1486 1485 1485 1485 1484 1483 1483 1483 1483 1482 1482 1481 1480 1479 1478 1477 1476 1475 1474 1474 1474
1486 1486 1486 1486 1487 1487 1487 1487 1487 1487 1487 1487 1487 1486 1486 1485 1484 1484 1484 1483 1482 1482 1481 1480 1480 1479 1479 1478 1478 1476 1475 1475 1474 1473 1472 1471 1470 1471
1483 1483 1484 1485 1485 1485 1485 1485 1485 1485 1486 1486 1485 1485 1484 1483 1483 1482 1481 1481 1480 1479 1478 1478 1477 1476 1474 1473 1473 1474 1473 1471 1470 1469 1469 1468 1467 1467
1481 1481 1482 1482 1483 1483 1483 1483 1483 1483 1483 1483 1483 1482 1482 1481 1481 1480 1479 1478 1478 1477 1476 1475 1474 1473 1472 1472 1470 1470 1470 1469 1467 1466 1466 1465 1464 1464
1478 1479 1480 1480 1480 1481 1481 1481 1481 1481 1480 1480 1480 1479 1479 1479 1478 1478 1477 1476 1475 1474 1473 1472 1472 1471 1470 1469 1468 1466 1466 1466 1465 1464 1463 1462 1460 1459
1476 1477 1477 1477 1478 1478 1478 1478 1478 1478 1478 1477 1477 1477 1476 1476 1475 1475 1474 1473 1473 1472 1471 1470 1469 1468 1467 1466 1464 1463 1463 1462 1462 1461 1461 1460 1458 1456
1473 1473 1474 1474 1475 1475 1475 1475 1475 1475 1475 1474 1474 1474 1474 1473 1472 1472 1471 1471 1470 1469 1468 1467 1466 1465 1464 1463 1461 1460 1459 1458 1457 1457 1457 1456 1455 1454